Regional Weather Roundup
Issued by NWS

Home | Current Version | Previous Version | Text Only | Print | Product List | Glossary On
Versions: 1 2 3 4 5 6 7 8 9 10 11 12 13 14 15 16 17 18 19 20 21 22 23 24 25 26 27 28 29 30 31 32 33 34 35 36 37 38 39 40 41 42 43 44 45 46 47 48 49 50
000
ASPQ40 PGUM 250710
RWRPQ
WEATHER ROUNDUP FOR THE MARIANAS AND MICRONESIA
NATIONAL WEATHER SERVICE TIYAN GU
500 PM CHST SAT MAY 25 2019

GUZ001>004-250800-
MARIANA ISLANDS-

CITY           SKY/WX    TMP DP  RH WIND       PRES   REMARKS
GUAM AIRPORT   SUNNY     88  73  62 SE8       29.84S HX  96
ANDERSEN AFB   MOSUNNY   84  75  74 E5        29.85S HX  92
ROTA AIRPORT   MOSUNNY   86  72  62 E10       29.84R HX  92
TINIAN AP      PTSUNNY   84  77  79 VRB3      29.83R HX  94
SAIPAN AP      MOSUNNY   84  75  74 E6        29.84R HX  92

$$

PMZ161-250800-
REPUBLIC OF PALAU-

CITY           SKY/WX    TMP DP  RH WIND       PRES   REMARKS
KOROR AP       PTSUNNY   86  73  66 SE5       29.79S HX  93
KOROR WSO      NOT AVBL

$$

PMZ171>174-250800-
FEDERATED STATES OF MICRONESIA-

CITY           SKY/WX    TMP DP  RH WIND       PRES   REMARKS
YAP AIRPORT    PTSUNNY   86  79  79 VRB3      29.81R HX  99
CHUUK AP       PTSUNNY   88  77  70 VRB5      29.80S HX 100
POHNPEI AP     CLOUDY    84  77  79 N7        29.82R HX  94
POHNPEI WSO    CLOUDY    81  79  94 SE3       29.87R
KOSRAE AP      NOT AVBL

$$

PMZ181-250800-
REPUBLIC OF THE MARSHALL ISLANDS-

CITY           SKY/WX    TMP DP  RH WIND       PRES   REMARKS
KWAJALEIN AP   CLEAR     84  77  79 E8        29.85R HX  94
MAJURO AP      NOT AVBL
MAJURO WSO     MOCLDY    84  75  74 E9        29.84R HX  92

$$




USA.gov is the U.S. government's official web portal to all federal, state and local government web resources and services.